FW7539 Weather Reports


Display with metric or nautical units.
time (UTC)temp
F
wind
direction
speed
MPH
gust
MPH
rain 1hr
in
rain 24hr
in
rain mn
in
humidity
%
barometer
mb
20260505012522 70 134 1.0 3.0 0.00 0.00 0.00 57 1005.7
20260505012001 70 137 1.0 3.0 0.00 0.00 0.00 57 1005.7
20260505011501 70 137 1.0 4.0 0.00 0.00 0.00 56 1005.6
20260505011001 70 137 1.0 5.0 0.00 0.00 0.00 56 1005.6
20260505010523 71 140 1.0 5.0 0.00 0.00 0.00 56 1005.6
20260505005957 71 137 1.0 5.0 0.00 0.00 0.00 56 1005.6
20260505005455 71 146 2.0 5.0 0.00 0.00 0.00 55 1005.6
20260505005016 71 146 1.0 5.0 0.00 0.00 0.00 55 1005.6
20260505004455 71 148 1.0 4.0 0.00 0.00 0.00 55 1005.6
20260505003955 71 149 1.0 4.0 0.00 0.00 0.00 54 1005.7
20260505003455 72 134 1.0 3.0 0.00 0.00 0.00 53 1005.6
20260505002956 72 139 2.0 5.0 0.00 0.00 0.00 54 1005.6
20260505002456 72 147 2.0 7.0 0.00 0.00 0.00 52 1005.7
20260505001956 72 146 2.0 7.0 0.00 0.00 0.00 52 1005.7
20260505001455 72 152 2.0 5.0 0.00 0.00 0.00 51 1005.7
20260505000955 72 153 2.0 6.0 0.00 0.00 0.00 51 1005.7
20260505000455 73 155 2.0 6.0 0.00 0.00 0.00 51 1005.8
20260504235955 73 168 2.0 5.0 0.00 0.00 0.00 51 1005.8
20260504235455 73 181 2.0 4.0 0.00 0.00 0.00 51 1005.9
20260504234955 73 195 2.0 7.0 0.00 0.00 0.00 50 1005.9
20260504234455 73 187 2.0 9.0 0.00 0.00 0.00 51 1006.1
20260504233955 73 182 3.0 9.0 0.00 0.00 0.00 50 1006.2
20260504233455 74 169 3.0 7.0 0.00 0.00 0.00 49 1006.3
20260504232955 74 164 3.0 5.0 0.00 0.00 0.00 48 1006.3
20260504232455 74 186 2.0 8.0 0.00 0.00 0.00 48 1006.4
20260504231955 75 190 2.0 8.0 0.00 0.00 0.00 46 1006.5
20260504231455 75 201 2.0 10.0 0.00 0.00 0.00 45 1006.4
20260504230956 75 205 4.0 12.0 0.00 0.00 0.00 45 1006.5
20260504230455 75 198 5.0 12.0 0.00 0.00 0.00 44 1006.5
20260504225955 76 183 5.0 12.0 0.00 0.00 0.00 43 1006.5
20260504225456 76 193 4.0 14.0 0.00 0.00 0.00 44 1006.6
20260504225016 76 196 4.0 14.0 0.00 0.00 0.00 44 1006.7
20260504224455 76 184 3.0 11.0 0.00 0.00 0.00 45 1006.7
20260504223955 76 208 4.0 11.0 0.00 0.00 0.00 45 1006.6
20260504223456 76 201 4.0 11.0 0.00 0.00 0.00 46 1006.7
20260504222955 75 200 3.0 10.0 0.00 0.00 0.00 47 1006.7
20260504222455 75 188 2.0 10.0 0.00 0.00 0.00 50 1006.7
20260504221955 75 160 3.0 9.0 0.00 0.00 0.00 51 1006.7
20260504221455 75 153 3.0 9.0 0.00 0.00 0.00 51 1006.7
20260504220955 75 143 3.0 7.0 0.00 0.00 0.00 51 1006.8
20260504220516 75 142 2.0 6.0 0.00 0.00 0.00 50 1006.6
20260504215955 75 141 2.0 7.0 0.00 0.00 0.00 51 1006.6
20260504215517 74 152 2.0 7.0 0.00 0.00 0.00 51 1006.7
20260504214956 75 189 1.0 3.0 0.00 0.00 0.00 50 1006.9
20260504214455 75 230 1.0 8.0 0.00 0.00 0.00 50 1007.0
20260504213955 75 241 2.0 8.0 0.00 0.00 0.00 48 1007.2
20260504213455 76 221 1.0 5.0 0.00 0.00 0.00 49 1007.3
20260504212955 76 225 2.0 7.0 0.00 0.00 0.00 46 1007.2
20260504212456 77 242 3.0 11.0 0.00 0.00 0.00 47 1007.2
20260504211955 77 249 2.0 11.0 0.00 0.00 0.00 47 1007.4
20260504211455 77 235 2.0 7.0 0.00 0.00 0.00 46 1007.4
20260504210955 77 246 2.0 6.0 0.00 0.00 0.00 48 1007.6
20260504210517 76 245 2.0 9.0 0.00 0.00 0.00 47 1007.6
20260504205956 76 236 3.0 9.0 0.00 0.00 0.00 48 1007.7
20260504205455 76 245 2.0 7.0 0.00 0.00 0.00 46 1007.7
20260504204955 76 211 3.0 9.0 0.00 0.00 0.00 48 1007.7
20260504204455 75 198 3.0 9.0 0.00 0.00 0.00 51 1007.8
20260504203955 75 159 3.0 9.0 0.00 0.00 0.00 49 1007.8
20260504203456 76 163 3.0 9.0 0.00 0.00 0.00 48 1007.8
20260504202955 76 210 3.0 9.0 0.00 0.00 0.00 50 1008.0
20260504202516 75 221 3.0 10.0 0.00 0.00 0.00 52 1008.1
20260504201955 74 224 3.0 10.0 0.00 0.00 0.00 53 1008.1
20260504201455 74 225 3.0 10.0 0.00 0.00 0.00 52 1008.2
20260504200955 74 226 3.0 10.0 0.00 0.00 0.00 52 1008.2
20260504200455 75 208 2.0 10.0 0.00 0.00 0.00 53 1008.4
20260504195955 75 180 3.0 9.0 0.00 0.00 0.00 51 1008.5
20260504195456 75 197 3.0 9.0 0.00 0.00 0.00 52 1008.5
20260504194955 74 196 2.0 6.0 0.00 0.00 0.00 52 1008.6
20260504194455 74 182 3.0 11.0 0.00 0.00 0.00 52 1008.7
20260504193955 74 174 2.0 11.0 0.00 0.00 0.00 53 1008.8
20260504193455 73 173 2.0 8.0 0.00 0.00 0.00 53 1008.7
20260504192955 73 191 2.0 8.0 0.00 0.00 0.00 53 1008.9
20260504192516 73 207 2.0 6.0 0.00 0.00 0.00 57 1009.0
20260504192016 72 229 2.0 8.0 0.00 0.00 0.00 57 1009.2
20260504191455 71 220 2.0 9.0 0.00 0.00 0.00 58 1009.2
20260504191016 71 225 2.0 9.0 0.00 0.00 0.00 56 1009.3
20260504190516 71 232 2.0 8.0 0.00 0.00 0.00 59 1009.2
20260504185955 71 241 2.0 7.0 0.00 0.00 0.00 61 1009.5
20260504185455 70 240 3.0 8.0 0.00 0.00 0.00 61 1009.5
20260504185016 70 223 2.0 8.0 0.00 0.00 0.00 63 1009.5
20260504184516 69 223 1.0 4.0 0.00 0.00 0.00 63 1009.6
20260504183955 69 212 2.0 4.0 0.00 0.00 0.00 62 1009.7
20260504183455 69 189 2.0 8.0 0.00 0.00 0.00 62 1009.7
20260504182955 69 213 2.0 8.0 0.00 0.00 0.00 61 1009.6
20260504182455 69 201 3.0 12.0 0.00 0.00 0.00 61 1009.6
20260504182016 69 185 3.0 12.0 0.00 0.00 0.00 60 1009.6
20260504181456 69 174 3.0 9.0 0.00 0.00 0.00 61 1009.6
20260504180955 69 166 3.0 11.0 0.00 0.00 0.00 60 1009.5
20260504180455 69 186 3.0 11.0 0.00 0.00 0.00 60 1009.3
20260504175955 69 189 3.0 10.0 0.00 0.00 0.00 60 1009.4
20260504175455 70 177 3.0 9.0 0.00 0.00 0.00 58 1009.3
20260504174955 70 166 3.0 9.0 0.00 0.00 0.00 60 1009.1
20260504174455 70 185 4.0 9.0 0.00 0.00 0.00 58 1009.0
20260504174016 70 202 3.0 9.0 0.00 0.00 0.00 57 1008.9
20260504173455 71 171 4.0 10.0 0.00 0.00 0.00 59 1008.9
20260504172955 71 160 4.0 11.0 0.00 0.00 0.00 58 1008.9
20260504172456 71 173 3.0 11.0 0.00 0.00 0.00 58 1009.0
20260504171956 70 196 3.0 10.0 0.00 0.00 0.00 60 1009.0
20260504171455 69 178 3.0 10.0 0.00 0.00 0.00 60 1009.2
20260504170955 69 193 3.0 10.0 0.00 0.00 0.00 59 1009.1
20260504170456 69 196 3.0 9.0 0.00 0.00 0.00 59 1009.3
20260504150956 64 154 3.0 9.0 0.00 0.00 0.00 64 1010.0
20260504150455 64 163 3.0 8.0 0.00 0.00 0.00 63 1009.9
20260504140956 61 196 3.0 9.0 0.00 0.00 0.00 67 1010.0
20260504140517 61 201 3.0 8.0 0.00 0.00 0.00 67 1009.9
20260504130516 57 168 2.0 11.0 0.00 0.00 0.00 70 1010.5
20260504110456 55 170 2.0 4.0 0.00 0.00 0.00 65 1010.5
20260504100456 54 152 1.0 3.0 0.00 0.00 0.00 65 1010.8
20260504081456 54 153 2.0 7.0 0.00 0.00 0.00 60 1011.4
20260504080956 54 154 2.0 7.0 0.00 0.00 0.00 60 1011.4
20260504080456 55 177 2.0 9.0 0.00 0.00 0.00 60 1011.5
20260504050456 55 151 2.0 8.0 0.00 0.00 0.00 56 1013.5
20260504045956 55 150 1.0 5.0 0.00 0.00 0.00 56 1013.5
20260504045517 55 143 2.0 5.0 0.00 0.00 0.00 57 1013.5
20260504044956 55 144 2.0 5.0 0.00 0.00 0.00 57 1013.5
20260504044517 55 148 2.0 4.0 0.00 0.00 0.00 56 1013.5
20260504044017 55 154 1.0 4.0 0.00 0.00 0.00 57 1013.5
20260504043456 55 157 1.0 4.0 0.00 0.00 0.00 57 1013.6
20260504042956 55 152 2.0 9.0 0.00 0.00 0.00 57 1013.6
20260504042457 55 146 2.0 9.0 0.00 0.00 0.00 58 1013.6
20260504041956 55 140 1.0 6.0 0.00 0.00 0.00 57 1013.7
20260504041517 55 147 2.0 6.0 0.00 0.00 0.00 57 1013.7
20260504041017 55 143 2.0 6.0 0.00 0.00 0.00 57 1013.8
20260504040456 55 142 2.0 6.0 0.00 0.00 0.00 57 1013.9
20260504035957 55 150 1.0 7.0 0.00 0.00 0.00 57 1013.9
20260504035518 55 146 1.0 7.0 0.00 0.00 0.00 58 1014.0
20260504034956 55 144 1.0 5.0 0.00 0.00 0.00 57 1014.0
20260504034456 55 144 1.0 4.0 0.00 0.00 0.00 57 1014.1
20260504034017 55 148 1.0 5.0 0.00 0.00 0.00 58 1014.2
20260504033456 55 146 2.0 5.0 0.00 0.00 0.00 57 1014.2
20260504032956 55 147 1.0 4.0 0.00 0.00 0.00 57 1014.2
20260504032517 55 158 1.0 3.0 0.00 0.00 0.00 57 1014.2
20260504031956 55 165 1.0 4.0 0.00 0.00 0.00 57 1014.2
20260504031456 55 175 1.0 4.0 0.00 0.00 0.00 57 1014.2
20260504030957 55 171 1.0 4.0 0.00 0.00 0.00 56 1014.2
20260504030456 55 151 1.0 3.0 0.00 0.00 0.00 57 1014.3
20260504025956 55 138 1.0 3.0 0.00 0.00 0.00 58 1014.3
20260504025457 55 136 1.0 3.0 0.00 0.00 0.00 56 1014.4
20260504024956 55 136 1.0 3.0 0.00 0.00 0.00 56 1014.3
20260504024517 55 138 0.0 2.0 0.00 0.00 0.00 57 1014.4
20260504023956 55 137 1.0 3.0 0.00 0.00 0.00 57 1014.5
20260504023457 55 129 1.0 3.0 0.00 0.00 0.00 57 1014.5
20260504023018 55 121 1.0 3.0 0.00 0.00 0.00 57 1014.5
20260504022518 55 119 1.0 3.0 0.00 0.00 0.00 56 1014.5
20260504021956 56 126 1.0 6.0 0.00 0.00 0.00 56 1014.5
20260504021456 56 133 1.0 6.0 0.00 0.00 0.00 56 1014.5
20260504020956 56 141 1.0 4.0 0.00 0.00 0.00 55 1014.5
20260504020456 56 142 1.0 3.0 0.00 0.00 0.00 55 1014.4
20260504015957 56 144 1.0 5.0 0.00 0.00 0.00 55 1014.3
20260504015456 56 156 1.0 5.0 0.00 0.00 0.00 54 1014.3
20260504014956 56 163 1.0 4.0 0.00 0.00 0.00 54 1014.3
20260504014456 56 150 1.0 2.0 0.00 0.00 0.00 55 1014.2
20260504014017 56 169 1.0 2.0 0.00 0.00 0.00 56 1014.2
20260504013456 56 186 1.0 3.0 0.00 0.00 0.00 57 1014.2
20260504012956 56 153 1.0 3.0 0.00 0.00 0.00 57 1014.3